Location: Chuathbaluk
(61.5726°N, 159.2454°W)
Time: 02:16:10
(UTC+00:00)

TIGRISAT - Pass Details

Date: 21 January 2021
Orbit: 605 x 688 km, 97.7° (Epoch: 05 March)

Event Time Altitude Azimuth Distance (km) Brightness Sun altitude
Rises 17:57:58 0° 188° (S) 2,867 ? -9.4°
Reaches altitude 10° 18:00:16 10° 198° (SSW) 1,974 ? -9.1°
Maximum altitude 18:04:13 35° 265° (W) 1,005 ? -8.7°
Drops below altitude 10° 18:08:16 10° 332° (NNW) 2,024 ? -8.3°
Enters shadow 18:10:09 - 340° (NNW) 2,745 ? -8.1°
